Location: Sihaung
(22.8641°N, 94.0549°E)
Time: 13:58:06
(UTC+00:00)

DELTA 4 R/B - Pass Details

Date: 03 March 2021
Orbit: 220 x 13491 km, 26.0° (Epoch: 11 April)

Event Time Altitude Azimuth Distance (km) Brightness Sun altitude
Exits shadow 22:07:23 32° 96° (E) 844 3.3 -27.4°
Drops below altitude 10° 22:08:38 10° 99° (E) 1,379 4.8 -27.1°
Sets 22:09:53 0° 100° (E) 1,985 5.9 -26.8°
